Inquirer Daily News

Weather

Get conditions and forecasts for any City, State, ZIP code or Country:  
Trenton, NJ
on Sunday, January 27, 2013

Sunday
Previous Day Next Day
Daily Summary
 ActualAverageRecord
Temperature
Mean Temperature °F 31°F  
Max Temperature 34°F 39°F 68°F (1974)
Min Temperature 13°F 24°F 1°F (1994)
Degree Days
Heating Degree Days 41 34  
Month to date heating degree days 859 917  
Since 1 July heating degree days 2617 2812  
Cooling Degree Days 0 0  
Month to date cooling degree days 0 0  
Year to date cooling degree days 0 0  
Moisture
Dew Point 10°F   
Average Humidity 57    
Maximum Humidity 73    
Minimum Humidity 41    
Precipitation
Precipitation 0.00 in 0.10 in 1.39 in (1976)
Month to date precipitation 1.70 2.77  
Year to date precipitation 1.70 2.77  
Wind
Wind Speed 4 mph   
Max Wind Speed 16 mph   
Max Gust Speed 22 mph   
Visibility 10 miles   
Events     

Key: T is trace of precipitation, MM is missing value
Source: NWS Daily Summary
Time(EST)TemperatureDew PointHumidity Pressure Visibility Wind DirectionWind SpeedGust SpeedPrecipitationEvents Conditions
12:53 AM 18.0°F 6.1°F 60% 30.40 in 10.0 miles NW 3.5 mph - N/A   Clear
1:53 AM 17.1°F 6.1°F 62% 30.43 in 10.0 miles NW 4.6 mph - N/A   Clear
2:53 AM 16.0°F 5.0°F 62% 30.44 in 10.0 miles NW 3.5 mph - N/A   Clear
3:53 AM 15.1°F 5.0°F 64% 30.45 in 10.0 miles NW 4.6 mph - N/A   Clear
4:53 AM 15.1°F 5.0°F 64% 30.45 in 10.0 miles Calm Calm - N/A   Clear
5:53 AM 16.0°F 6.1°F 65% 30.45 in 10.0 miles NW 3.5 mph - N/A   Clear
6:53 AM 14.0°F 6.1°F 71% 30.46 in 10.0 miles NW 5.8 mph - N/A   Clear
7:53 AM 18.0°F 8.1°F 65% 30.50 in 10.0 miles NNW 5.8 mph - N/A   Clear
8:53 AM 21.9°F 10.0°F 60% 30.52 in 10.0 miles NNW 8.1 mph - N/A   Clear
9:53 AM 25.0°F 12.0°F 58% 30.53 in 10.0 miles NNW 12.7 mph 21.9 mph N/A   Clear
10:53 AM 27.0°F 12.9°F 56% 30.53 in 10.0 miles NNW 9.2 mph - N/A   Clear
11:53 AM 30.0°F 12.9°F 49% 30.52 in 10.0 miles North 10.4 mph - N/A   Clear
12:53 PM 32.0°F 12.9°F 45% 30.48 in 10.0 miles NNW 6.9 mph - N/A   Clear
1:53 PM 33.1°F 12.0°F 42% 30.48 in 10.0 miles NNW 5.8 mph - N/A   Clear
2:53 PM 34.0°F 12.0°F 40% 30.47 in 10.0 miles WNW 6.9 mph - N/A   Clear
3:53 PM 33.1°F 12.0°F 42% 30.48 in 10.0 miles NW 5.8 mph - N/A   Clear
4:53 PM 32.0°F 12.0°F 44% 30.48 in 10.0 miles NW 5.8 mph - N/A   Clear
5:53 PM 30.0°F 12.9°F 49% 30.50 in 10.0 miles Calm Calm - N/A   Clear
6:53 PM 28.9°F 12.9°F 51% 30.51 in 10.0 miles Calm Calm - N/A   Clear
7:53 PM 26.1°F 12.9°F 58% 30.49 in 10.0 miles Calm Calm - N/A   Clear
8:53 PM 25.0°F 14.0°F 63% 30.50 in 10.0 miles Calm Calm - N/A   Clear
9:53 PM 21.9°F 12.9°F 68% 30.49 in 10.0 miles Calm Calm - N/A   Clear
10:53 PM 23.0°F 12.9°F 65% 30.48 in 9.0 miles Calm Calm - N/A   Clear
11:53 PM 21.0°F 12.9°F 71% 30.49 in 9.0 miles NW 3.5 mph - N/A   Clear
Astronomy
Sunrise:07:12 AM (EST) Moon Rise:06:04 PM (EST)1/27
Sunset:05:12 PM (EST) Moon Set:07:03 AM (EST)1/27
Moon Phase
Jan. 27 Feb. 03 Feb. 10 Feb. 17 Feb. 25

Copyright © 2014 The Weather Underground, Inc.